Location: ?p Thanh B�nh
(16.5833°N, 107.5333°E)
Time: 08:16:31
(UTC+00:00)

Cosmos 2058 Rocket - Pass Details

Date: 29 October 2020
Orbit: 610 x 640 km, 82.5° (Epoch: 02 December)

Event Time Altitude Azimuth Distance (km) Brightness Sun altitude
Rises 22:03:01 0° 355° (N) 2,914 6.3 -11.1°
Reaches altitude 10° 22:05:15 10° 356° (N) 2,001 5.5 -10.5°
Maximum altitude 22:09:42 90° 76° (ENE) 627 3.1 -9.5°
Drops below altitude 10° 22:14:05 10° 176° (S) 1,978 5.9 -8.5°
Sets 22:16:18 0° 176° (S) 2,878 6.7 -7.9°
